Weather Service Report


337 
ASUS45 KABQ 230810
RWRNM 
NEW MEXICO REGIONAL WEATHER ROUNDUP
NATIONAL WEATHER SERVICE ALBUQUERQUE NM
200 AM MDT THU SEP 23 2021

NOTE: "FAIR" MEANS FEW OR NO CLOUDS BELOW 12,000 FEET AGL WITH NO
       SIGNIFICANT WEATHER OR OBSTRUCTIONS TO VISION.

      THIS PRODUCT IS RELEASED AS TWO VERSIONS.  ONE VERSION NEAR
      THE TOP OF THE HOUR CONTAINING PRELIMINARY DATA FROM ALBUQUERQUE
      AND OTHER STATIONS.  A FINAL VERSION WITH ADDITIONAL DATA IS 
      ISSUED ABOUT 10 MINUTES AFTER THE HOUR.
 
NMZ201-203-204-210>218-230900-
NORTHWEST PLATEAU/NORTHCENTRAL MOUNTAINS
  
CITY           SKY/WX    TMP DP  RH WIND       PRES   REMARKS
FARMINGTON     FAIR      48  11  22 E3        30.21F                  
LOS ALAMOS     FAIR      59  14  17 CALM      30.32F                  
SANTA FE       FAIR      61  36  39 W9        30.27S                  
TAOS           FAIR      44  21  40 N3        30.33S                  
ANGEL FIRE     FAIR      28  23  79 CALM      30.41S                  

$$
NMZ202-205>209-241-402-403-230900-
WESTCENTRAL MOUNTAINS/SOUTHWEST MOUNTAINS
  
CITY           SKY/WX    TMP DP  RH WIND       PRES   REMARKS
GALLUP         FAIR      45  21  38 CALM      30.30S                  
GRANTS         FAIR      47  18  31 NW7       30.32S                  
SILVER CITY    FAIR      58  36  44 N8        30.26F                  

$$
NMZ407-409-411-412-230900-
SOUTHERN DESERTS
  
CITY           SKY/WX    TMP DP  RH WIND       PRES   REMARKS
DEMING         FAIR      62  36  37 N5        30.20S                  
LAS CRUCES     FAIR      59  35  40 CALM      30.21S                  
HOLLOMAN AFB   FAIR      62  38  41 E3        30.21F                  
T OR C         FAIR      64  37  36 CALM      30.21F                  

$$
NMZ219>223-230900-
CENTRAL VALLEYS/CENTRAL HIGHLANDS
  
CITY           SKY/WX    TMP DP  RH WIND       PRES   REMARKS
ALBUQUERQUE    CLOUDY    63  37  38 SE3       30.23S                  
DOUBLE EAGLE   FAIR      53  32  46 CALM      30.25F                  
MORIARTY ARPT  FAIR      42  28  58 N5        30.29S                  
CLINES CORNERS FAIR      54  36  50 SW17      30.32S                  
BELEN          FAIR      60  35  40 S8        30.22S                  
SOCORRO        FAIR      58  37  45 S9        30.21S                  

$$
NMZ224>226-239-240-230900-
SOUTHCENTRAL MOUNTAINS
  
CITY           SKY/WX    TMP DP  RH WIND       PRES   REMARKS
RUIDOSO        FAIR      52  34  50 W8        30.34S                  

$$
NMZ227>231-230900-
NORTHEAST HIGHLANDS/NORTHEAST PLAINS
  
CITY           SKY/WX    TMP DP  RH WIND       PRES   REMARKS
RATON          FAIR      49  34  56 NW7       30.23F                  
CLAYTON        FAIR      58  33  39 SW13      30.16F                  

$$
NMZ232>237-230900-
EASTCENTRAL PLAINS
  
CITY           SKY/WX    TMP DP  RH WIND       PRES   REMARKS
SANTA ROSA     FAIR      51  34  52 SE7       30.18S                  
TUCUMCARI      FAIR      63  32  31 SW14      30.13F                  
CANNON AFB     FAIR      50  36  59 SE6       30.19S                  
CLOVIS AIRPORT FAIR      48  36  63 S8        30.21S                  

$$
NMZ028-029-033-238-230900-
SOUTHEAST PLAINS
  
CITY           SKY/WX    TMP DP  RH WIND       PRES   REMARKS
ROSWELL        FAIR      60  32  34 S8        30.15S                  
ARTESIA        FAIR      61  34  36 S9        30.17S                  
CARLSBAD       FAIR      65  31  28 S8        30.15S                  
HOBBS          FAIR      54  32  43 S5        30.20S                  


$$
  

Return to Home page


Western Regional Climate Center, wrcc@dri.edu